weather.gov     
National Weather Service

Regional Weather Roundup
NWS Homepage
This page is being discontinued on March 12, 2014.
The same data is available at this site. Please update your bookmarks.
Thank you, and we apologize for the inconvenience.
Please send an email to SR-SRH.Webmaster@noaa.gov with any concerns.


Current Version
Previous Version:    01  02  03  04  05  06  07  08  09  10  11  12  13  14  15  16  17  18  19  20  21  22  23  24  25  26  27  28  29  30  
   31  32  33  34  35  36  37  38  39  40  41  42  43  44  45  46  47  48  49  50  51  52  53  54  55  56  57  58  59  60  
[Printable]
254
ASUS44 KFWD 012015
RWRTX
NORTH TEXAS HOURLY WEATHER ROUNDUP
NATIONAL WEATHER SERVICE FORT WORTH TX
300 PM CDT MON SEP 01 2014

NOTE: "FAIR" INDICATES FEW OR NO CLOUDS BELOW 12,000 FEET WITH NO
SIGNIFICANT WEATHER AND/OR OBSTRUCTIONS TO VISIBILITY.

TXZ118-119-012100-
DALLAS/FORT WORTH METROPLEX

CITY           SKY/WX    TMP DP  RH WIND       PRES   REMARKS
DFW AIRPORT    PTSUNNY   94  70  45 S18       29.87F HX 100
DALLAS LOVE    PTSUNNY   94  70  45 SE17      29.88F HX 100
FTW MEACHAM    MOSUNNY   97  69  40 S13       29.86F HX 103
DAL-EXECUTIVE  PTSUNNY   96  69  41 S14G22    29.89F HX 102
FTW-ALLIANCE   MOSUNNY   94  70  45 SE15G22   29.86F HX 100
FTW-NAS-JRB    MOSUNNY   98  67  36 SE16      29.90F HX 102
FTW-SPINKS     PTSUNNY   93  70  46 SE9G17    29.89F HX  99
ARLINGTON      PTSUNNY   95  68  41 SE15G23   29.88F HX  99
GRAND PRAIRIE  SUNNY     93  70  46 MISG      29.91S HX  99
ADDISON        MOSUNNY   95  68  41 SE15G23   29.89F HX  99
MESQUITE       MOSUNNY   95  66  38 SE15      29.90F HX  98
LANCASTER      SUNNY     95  67  39 SE13G18   29.90F HX  98
$$

TXZ091>094-102>105-117-120-121-131>134-012100-
NORTH CENTRAL TEXAS

CITY           SKY/WX    TMP DP  RH WIND       PRES   REMARKS
SHRMAN/DENISON MOSUNNY   95  69  42 SE18      29.89F HX 100
GAINESVILLE    SUNNY     91  73  55 SE16G22   29.89F HX  99
BOWIE          SUNNY     94  70  45 S13G23    29.86F HX 100
BRIDGEPORT     MOSUNNY   96  64  34 S10G17    29.88F HX  97
DECATUR        MOSUNNY   93  66  40 SE10G20   29.88F HX  96
DENTON         MOSUNNY   95  71  45 SE15G24   29.87F HX 102
MCKINNEY       MOSUNNY   92  69  47 SE18G28   29.89F HX  97
GREENVILLE     MOSUNNY   91  66  43 SE16G22   29.91F HX  94
ROCKWALL       MOSUNNY   92  72  51 S13G18    29.89F HX  99
TERRELL        MOSUNNY   94  68  42 S13G22    29.91F HX  98
WAXAHACHIE     MOSUNNY   94  64  37 SE10G22   29.90F HX  95
CLEBURNE       MOSUNNY   95  70  43 S15       29.89F HX 101
GRANBURY       MOSUNNY   98  66  34 SE16G23   29.87F HX 101
$$

TXZ083>090-098>101-113>116-127>130-139>142-154-155-012100-
WESTERN NORTH TEXAS

CITY           SKY/WX    TMP DP  RH WIND       PRES   REMARKS
WICHITA FALLS  SUNNY     99  67  35 SW18G25   29.80F HX 103
WF-KICKAPOO    SUNNY    101  60  26 SW10G18   29.82F HX 102
VERNON         SUNNY    100  65  31 S17G24    29.80F HX 102
ABILENE        SUNNY     99  62  29 S15G26    29.86F HX 100
ABILENE-DYESS  SUNNY     99  66  34 SE21      29.84F HX 102
BRECKENRIDGE   SUNNY     98  62  29 S13G24    29.84F HX  99
GRAHAM         SUNNY     99  63  30 SE13G21   29.82F HX 100
MINERAL WELLS  SUNNY     96  67  38 S16G23    29.85F HX 100
STEPHENVILLE   SUNNY     94  66  39 SE16G23   29.91F HX  96
COMANCHE         N/A     98  62  29 S16G23    29.88F HX  99
BROWNWOOD      SUNNY     95  64  36 S15G23    29.87F HX  97
COLEMAN        SUNNY     97  61  29 S17       29.88F HX  97
BRADY          SUNNY     95  63  34 S12       29.89F HX  96
$$

TXZ143>147-156>162-174-175-012100-
CENTRAL TEXAS

CITY           SKY/WX    TMP DP  RH WIND       PRES   REMARKS
WACO           MOSUNNY   98  67  36 S18       29.88F HX 102
WACO-TSTC      MOSUNNY   97  66  36 S17       29.88F HX 100
WACO-MCGREGOR  MOSUNNY   99  68  36 S21G26    29.88F HX 104
HILLSBORO      MOSUNNY   97  66  36 SE14G22   29.89F HX 100
CORSICANA      MOSUNNY   93  70  46 SE13      29.92F HX  99
MEXIA          MOSUNNY   92  72  51 SE9       29.90F HX  99
HEARNE           N/A     96  69  42 SE9       29.90F HX 102
CAMERON        PTSUNNY   96  69  41 S14G20    29.89F HX 102
TEMPLE         MOSUNNY   99  66  34 S16G25    29.88F HX 102
KILLEEN        PTSUNNY   97  66  36 S18G29    29.88F HX 100
KILLEEN-SKYLRK MOSUNNY   97  66  36 SE17G24   29.88F HX 100
FORT HOOD      MOSUNNY   99  66  33 S14G23    29.88F HX 103
GATESVILLE     SUNNY     97  66  36 SE14G23   29.90F HX 100
HAMILTON       MOSUNNY   95  64  35 S10G26    29.90F HX  97
LAMPASAS       MOSUNNY   96  69  41 S10G21    29.89F HX 101
$$

TXZ095>097-106>112-122>126-135>138-148>153-164>167-012100-
EAST TEXAS

CITY           SKY/WX    TMP DP  RH WIND       PRES   REMARKS
PARIS          MOSUNNY   91  68  46 S16G24    29.93F HX  95
SULPHUR SPRNGS MOSUNNY   93  67  42 S14G22    29.94F HX  96
MOUNT PLEASANT MOSUNNY   93  67  42 S9        29.94F HX  96
GILMER         SUNNY     91  70  49 SE9G16    29.95F HX  97
MINEOLA        MOSUNNY   91  70  49 S7        29.94F HX  97
TYLER          MOSUNNY   93  69  45 S12       29.93F HX  98
LONGVIEW       MOSUNNY   95  68  41 S7G16     29.93F HX  99
MARSHALL       MOSUNNY   94  75  54 SE5       29.96F HX 104
ATHENS         MOSUNNY   90  70  51 SE10G16   29.91F HX  95
PALESTINE      SUNNY     93  69  44 SE8       29.94F HX  98
JACKSONVILLE   MOSUNNY   92  67  44 S8        29.97F HX  95
HENDERSON      MOSUNNY   94  68  42 S9        29.95F HX  98
NACOGDOCHES    MOSUNNY   91  72  52 S10       29.94F HX  98
LUFKIN         MOSUNNY   96  73  47 VRB6      29.94F HX 105
$$

SUPPLEMENTAL OBSERVATIONS (CENTRAL)

CITY           SKY/WX    TMP DP  RH WIND       PRES   REMARKS
LAKE TEXOMA      N/A     91  70  49 S10         N/A  HX  97
CADDO GRASSLND   N/A     93  70  46 S13G24      N/A  HX  99
PAT MAYSE LAKE   N/A     88  70  55 SE17        N/A  HX  92
GREENVILLE       N/A     93  70  46 SE10G18     N/A  HX  99
CEDAR HILL       N/A     97  70  41 S10G20      N/A  HX 103
ATHENS           N/A     93  70  46 SE10        N/A  HX  99
LAKE LIMESTONE   N/A     97  68  38 S12         N/A  HX 101
MCGREGOR         N/A     95  64  36 S15G25      N/A  HX  97
$$

SUPPLEMENTAL OBSERVATIONS (WEST)

CITY           SKY/WX    TMP DP  RH WIND       PRES   REMARKS
MILLERS CREEK    N/A    100  68  34 SW14G22     N/A  HX 106
LBJ GRASSLAND    N/A     97  72  44 S12         N/A  HX 105
GRANBURY         N/A     97  64  34 SE16G22     N/A  HX  99
COMANCHE         N/A     97  64  34 S13G23      N/A  HX  99
HAMBY            N/A    100  63  28 S15G25      N/A  HX 102
IVIE RESERVOIR   N/A    100  61  27 SW13        N/A  HX 101
COLORADO BEND    N/A     97  64  34 SE15G22     N/A  HX  99
$$

SUPPLEMENTAL OBSERVATIONS (EAST)

CITY           SKY/WX    TMP DP  RH WIND       PRES   REMARKS
CLARKSVILLE      N/A     90  70  51 S10         N/A  HX  95
TEXARKANA        N/A     93  70  46 S5          N/A  HX  99
LINDEN           N/A     97  70  41 SE3         N/A  HX 103
CADDO LAKE       N/A     93  70  46 SE6         N/A  HX  99
GILMER           N/A     93  68  43 SE9         N/A  HX  97
HENDERSON        N/A     93  70  46 S8G17       N/A  HX  99
LUFKIN           N/A     93  72  49 MISG        N/A  HX 100
N SABINE NF      N/A     91  77  62 MISG        N/A  HX 105
S SABINE NF      N/A     90  72  55 E2          N/A  HX  96
$$

SUPPLEMENTAL OBSERVATIONS ARE A COLLECTION OF AUTOMATED INSTRUMENTS
THAT ARE MAINTAINED BY A VARIETY OF FEDERAL AND STATE AGENCIES.
CERTAIN ELEMENTS...SUCH AS HUMIDITY VALUES AND SUSTAINED WIND
SPEEDS...MAY BE APPROXIMATED.





U.S. Dept. of Commerce
NOAA National Weather Service
1325 East West Highway
Silver Spring, MD 20910
E-mail: w-nws.webmaster@noaa.gov
Page last modified: May 16, 2007
NATIONAL WEATHER SERVICE: for Safety, for Work, for Fun - FOR LIFE